Regional Weather Roundup
Issued by NWS Upton, NY

Current Version | Previous Version | Text Only | Print | Product List | Glossary On
Versions: 1 2 3 4 5 6 7 8 9 10 11 12 13 14 15 16 17 18 19 20 21 22 23 24 25 26 27 28 29 30 31 32 33 34 35 36 37 38 39 40 41 42 43 44 45 46 47 48
000 ASUS41 KOKX 020405 RWROKX REGIONAL WEATHER ROUNDUP NATIONAL WEATHER SERVICE NEW YORK NY 1200 AM EDT SAT AUG 02 2014 NOTE: "FAIR" INDICATES FEW OR NO CLOUDS BELOW 12,000 FEET WITH NO SIGNIFICANT WEATHER AND/OR OBSTRUCTIONS TO VISIBILITY. NYZ071-072-176-178-NJZ106-104-020500- NEW YORK CITY METRO AREA CITY SKY/WX TMP DP RH WIND PRES REMARKS CENTRAL PARK CLOUDY 73 60 63 CALM 30.22F LAGUARDIA APRT CLOUDY 74 63 68 SE6 30.19F KENNEDY INTL CLOUDY 73 68 84 E3 30.20F NEWARK/LIBERTY CLOUDY 74 66 76 SE3 30.19F BRNX BOT. GARD N/A 72 63 73 SE2 30.20F TETERBORO LGT RAIN 74 67 78 N3 30.19S $$ NYZ177-179-078>081-020500- LONG ISLAND NEW YORK CITY SKY/WX TMP DP RH WIND PRES REMARKS FARMINGDALE CLOUDY 71 67 87 SE3 30.21F ISLIP CLOUDY 74 67 78 SE3 30.19F SHIRLEY LGT RAIN 70 67 90 CALM 30.21F WESTHAMPTON CLOUDY 69 66 90 CALM 30.23S MONTAUK POINT N/A 71 67 87 CALM 30.24S $$ NYZ052-065-067-020500- HUDSON VALLEY CITY SKY/WX TMP DP RH WIND PRES REMARKS WHITE PLAINS CLOUDY 68 65 90 CALM 30.21S NEWBURGH CLEAR 68 66 94 CALM 30.22S MONTGOMERY CLOUDY 66 64 93 CALM 30.20S POUGHKEEPSIE CLOUDY 69 66 90 CALM 30.20R FOG ALBANY CLOUDY 71 64 78 S5 30.19S $$ NJZ001-105-106-008-010-013-015-019>022-104-020500- NEW JERSEY CITY SKY/WX TMP DP RH WIND PRES REMARKS NEWARK/LIBERTY CLOUDY 74 66 76 SE3 30.19F TETERBORO LGT RAIN 74 67 78 N3 30.19S CALDWELL CLOUDY 70 66 87 CALM 30.20S FOG MORRISTOWN CLOUDY 70 66 88 CALM 30.21R FOG SOMERVILLE CLOUDY 69 67 93 CALM 30.18S FOG LINDEN FAIR 77 70 78 CALM 30.21S SUSSEX CLOUDY 68 64 87 CALM 30.21S ANDOVER N/A 66 64 93 CALM 30.22R TRENTON CLOUDY 69 67 93 CALM 30.19S FOG MILLVILLE LGT RAIN 70 68 93 E3 30.18S ATLANTIC CITY LGT RAIN 69 69 100 CALM 30.18S FOG WRIGHTSTOWN CLOUDY 69 68 98 SE2 30.17S TOMS RIVER CLOUDY 70 68 94 CALM 30.20S BELMAR CLOUDY 70 66 88 SE5 30.20S $$ PAZ047>061-062-071-020500- EASTERN PENNSYLVANIA CITY SKY/WX TMP DP RH WIND PRES REMARKS PHILADELPHIA CLOUDY 72 68 87 SE3 30.19S ALLENTOWN CLOUDY 67 64 90 N3 30.19F SCRANTON CLOUDY 67 61 81 CALM 30.20S $$ CTZ002-004>006-009-010-012-RIZ004-006-007-MAZ004-011-015-020500- SOUTHERN NEW ENGLAND IN CT CITY SKY/WX TMP DP RH WIND PRES REMARKS BRADLEY INTL CLOUDY 67 64 90 N5 30.21S HARTFORD CLOUDY 71 66 84 SE3 30.21S DANBURY CLOUDY 69 64 84 SE7 30.23S WTRBRY/OXFORD CLOUDY 68 63 83 SE6 30.25R BRIDGEPORT CLOUDY 73 67 81 S3 30.21S MERIDEN CLOUDY 70 66 87 CALM 30.22S NEW HAVEN CLOUDY 74 67 78 CALM 30.21F CHESTER FAIR 70 66 88 CALM 30.24S GROTON CLOUDY 69 68 96 SE3 30.21F WILLIMANTIC CLOUDY 69 65 86 CALM 30.23S IN RI CITY SKY/WX TMP DP RH WIND PRES REMARKS PROVIDENCE CLOUDY 71 67 87 S5 30.24R BLOCK ISLAND CLOUDY 70 66 88 SE5 30.24S WESTERLY CLOUDY 70 67 90 NE3 30.23F IN MA CITY SKY/WX TMP DP RH WIND PRES REMARKS BOSTON CLOUDY 73 62 68 S7 30.22S WORCESTER CLOUDY 67 64 90 SW7 30.24F WESTFIELD CLOUDY 66 64 93 CALM 30.22S FOG PROVINCETOWN CLOUDY 70 66 88 CALM 30.24S NANTUCKET CLOUDY 65 58 78 E3 30.25R $$ ANZ330-335-338-340-345-350-353-355-020500- COASTAL MARINE OBSERVATIONS STATION/POSITION TIME SKY/WX TEMP WIND PRES VSBY WAVE AIR SEA DIR/SP/G HT/PER (UTC) (F) (DEG/KT/KT) (MB) (MI) (FT/S) NY HARB ENTRANCE NOT AVBL 4S FIRE IS NOT AVBL 23SW MTP 0400 70 70 1022.8 2/ 8 HUDSON CANYON 0400 74 74 80/ 8/ 10 1021.7 3/ 7 EXECUTION ROCKS 0400 72 70 130/ 6/ 6 N/A WESTERN LI SOUND 0400 72 140/ 6/ 6 N/A 0 CENTRAL LI SOUND 0300 72 72 170/ 4/ 4 N/A 0 EASTERN LI SOUND 0300 69 69 120/ 4/ 6 N/A ROBBINS REEF 0300 150/ 8/ 9 N/A $$ >>>>>>>>>>>>>>>>>>>>>>>>>>>> KEY <<<<<<<<<<<<<<<<<<<<<<<<<<< > < > SKY/WX - SKY CONDITION/PRESENT WEATHER < > TMP - TEMPERATURE IN FAHRENHEIT < > DP - DEWPOINT IN FAHRENHEIT < > RH - RELATIVE HUMIDITY IN PERCENT < > WIND - DIRECTION AND SPEED IN MPH < > PRES - MEAN SEA LEVEL PRESSURE IN INCHES OF HG < > WCI - WIND CHILL INDEX < > VSB - VISIBILITY IN MILES < > HX - HEAT INDEX < > TC - TEMPERATURE IN CELSIUS < > VRB - VARIABLE WIND DIRECTION < > < >>>>>>>>>>>>>>>>>>>>>>>>>>>> KEY <<<<<<<<<<<<<<<<<<<<<<<<<<<

USA.gov is the U.S. government's official web portal to all federal, state and local government web resources and services.